User: anonymous   Login
Location: Caltech
(34.1382°N, 118.1253°W)
Time: 13:06:44
(UTC-07:00)
Language:

Meteor 2-4 Rocket - Orbit

View from above orbital plane
View from above orbital plane
View from above satellite
View from above satellite

Ground track
Ground track

The orbit data is extracted from the following two-line orbital elements,

1 11289U 79021B   16147.68995569 +.00000044 +00000-0 +17385-4 0  9992
2 11289 081.2458 181.2076 0074340 249.8800 109.4362 14.11538962916040
Epoch (UTC): 26 May 2016 16:33:32
Eccentricity: 0.0074340
inclination: 81.2458°
perigee height: 800 km
apogee height: 908 km
right ascension of ascending node: 181.2076°
argument of perigee: 249.8800°
revolutions per day: 14.11538962
mean anomaly at epoch: 109.4362°
orbit number at epoch: 91604

The dashed part of the orbit path shows where the satellite is in the earth's shadow,  

DLR